Information on these data can be found in provided Readme document
Contact Info: Zachary Fasnacht (zachary.fasnacht@ssaihq.com); Nickolay Krotkov (nickolay.a.krotkov@nasa.gov); Lok Lamsal (lok.lamsal@nasa.gov)

FillValue: -999.
ScaleFactor: 1e15
Units: molecules/cm^2

Date(yyyy-mm-dd),City,Country,LonCenter,LatCenter,BoundingCoordinates,Median,Q1,Q3,Mean,Baseline_Median,Baseline_Q1,Baseline_Q3,Baseline_Mean,NumGoodSamples,NumTotalSamples
2015-01-01,Khulna,Bangladesh,89.5403,22.8456,[89.0403 22.3456 90.0403 23.3456],2.038,1.214,2.737,2.006,2.813,2.087,3.723,3.062,135.0,529.0
2015-01-02,Khulna,Bangladesh,89.5403,22.8456,[89.0403 22.3456 90.0403 23.3456],2.149,1.352,2.81,2.066,2.799,2.098,3.662,3.014,118.0,512.0
2015-01-03,Khulna,Bangladesh,89.5403,22.8456,[89.0403 22.3456 90.0403 23.3456],2.348,1.519,3.066,2.277,2.799,2.121,3.786,3.049,124.0,539.0
2015-01-04,Khulna,Bangladesh,89.5403,22.8456,[89.0403 22.3456 90.0403 23.3456],2.195,1.469,2.772,2.159,2.839,2.055,3.75,3.038,130.0,523.0
2015-01-05,Khulna,Bangladesh,89.5403,22.8456,[89.0403 22.3456 90.0403 23.3456],2.34,1.519,2.865,2.232,2.73,1.971,3.67,2.926,156.0,523.0
2015-01-06,Khulna,Bangladesh,89.5403,22.8456,[89.0403 22.3456 90.0403 23.3456],2.401,1.63,3.047,2.327,2.673,1.933,3.726,2.921,137.0,532.0
2015-01-07,Khulna,Bangladesh,89.5403,22.8456,[89.0403 22.3456 90.0403 23.3456],2.391,1.674,3.099,2.387,2.613,1.94,3.6,2.898,156.0,509.0
2015-01-08,Khulna,Bangladesh,89.5403,22.8456,[89.0403 22.3456 90.0403 23.3456],2.391,1.674,3.099,2.387,2.615,1.927,3.578,2.885,156.0,523.0
2015-01-09,Khulna,Bangladesh,89.5403,22.8456,[89.0403 22.3456 90.0403 23.3456],2.391,1.63,3.099,2.386,2.572,1.913,3.539,2.857,159.0,508.0
2015-01-10,Khulna,Bangladesh,89.5403,22.8456,[89.0403 22.3456 90.0403 23.3456],2.492,1.79,3.163,2.494,2.627,1.954,3.525,2.886,150.0,484.0
2015-01-11,Khulna,Bangladesh,89.5403,22.8456,[89.0403 22.3456 90.0403 23.3456],2.53,1.709,3.099,2.503,2.523,1.947,3.491,2.858,155.0,471.0
2015-01-12,Khulna,Bangladesh,89.5403,22.8456,[89.0403 22.3456 90.0403 23.3456],2.492,1.697,3.099,2.502,2.512,1.9,3.534,2.842,188.0,481.0
2015-01-13,Khulna,Bangladesh,89.5403,22.8456,[89.0403 22.3456 90.0403 23.3456],2.604,1.821,3.163,2.561,2.535,1.914,3.612,2.924,167.0,480.0
2015-01-14,Khulna,Bangladesh,89.5403,22.8456,[89.0403 22.3456 90.0403 23.3456],2.606,1.846,3.283,2.608,2.493,1.91,3.537,2.904,193.0,469.0
2015-01-15,Khulna,Bangladesh,89.5403,22.8456,[89.0403 22.3456 90.0403 23.3456],2.604,1.747,3.179,2.558,2.542,1.917,3.648,2.964,177.0,489.0
2015-01-16,Khulna,Bangladesh,89.5403,22.8456,[89.0403 22.3456 90.0403 23.3456],2.723,1.859,3.826,2.959,2.657,1.999,3.803,3.107,197.0,461.0
2015-01-17,Khulna,Bangladesh,89.5403,22.8456,[89.0403 22.3456 90.0403 23.3456],2.652,1.821,3.941,2.954,2.668,2.001,3.854,3.146,190.0,482.0
2015-01-18,Khulna,Bangladesh,89.5403,22.8456,[89.0403 22.3456 90.0403 23.3456],2.24,1.623,3.357,2.638,2.574,1.979,3.757,3.058,186.0,465.0
2015-01-19,Khulna,Bangladesh,89.5403,22.8456,[89.0403 22.3456 90.0403 23.3456],2.365,1.691,3.371,2.785,2.724,2.017,3.816,3.19,192.0,492.0
2015-01-20,Khulna,Bangladesh,89.5403,22.8456,[89.0403 22.3456 90.0403 23.3456],2.209,1.477,3.368,2.645,2.778,2.044,3.83,3.237,185.0,476.0
2015-01-21,Khulna,Bangladesh,89.5403,22.8456,[89.0403 22.3456 90.0403 23.3456],2.216,1.5,3.368,2.652,2.779,2.049,3.862,3.255,214.0,479.0
2015-01-22,Khulna,Bangladesh,89.5403,22.8456,[89.0403 22.3456 90.0403 23.3456],2.209,1.477,3.368,2.646,2.783,2.091,4.036,3.328,195.0,493.0
2015-01-23,Khulna,Bangladesh,89.5403,22.8456,[89.0403 22.3456 90.0403 23.3456],2.209,1.477,3.368,2.646,2.804,2.117,3.928,3.289,195.0,470.0
2015-01-24,Khulna,Bangladesh,89.5403,22.8456,[89.0403 22.3456 90.0403 23.3456],2.209,1.477,3.357,2.657,2.845,2.136,4.038,3.353,192.0,482.0
2015-01-25,Khulna,Bangladesh,89.5403,22.8456,[89.0403 22.3456 90.0403 23.3456],2.002,1.414,2.912,2.422,2.854,2.134,3.895,3.31,222.0,515.0
2015-01-26,Khulna,Bangladesh,89.5403,22.8456,[89.0403 22.3456 90.0403 23.3456],1.991,1.299,2.979,2.43,2.732,2.067,3.871,3.243,205.0,540.0
2015-01-27,Khulna,Bangladesh,89.5403,22.8456,[89.0403 22.3456 90.0403 23.3456],1.824,1.231,2.694,2.317,2.717,2.052,3.833,3.23,195.0,525.0
2015-01-28,Khulna,Bangladesh,89.5403,22.8456,[89.0403 22.3456 90.0403 23.3456],1.766,1.231,2.694,2.303,2.67,2.103,3.73,3.173,227.0,535.0
2015-01-29,Khulna,Bangladesh,89.5403,22.8456,[89.0403 22.3456 90.0403 23.3456],1.71,1.216,2.576,2.246,2.651,2.096,3.633,3.132,201.0,534.0
2015-01-30,Khulna,Bangladesh,89.5403,22.8456,[89.0403 22.3456 90.0403 23.3456],1.713,1.224,2.694,2.271,2.594,2.036,3.558,3.064,226.0,523.0
2015-01-31,Khulna,Bangladesh,89.5403,22.8456,[89.0403 22.3456 90.0403 23.3456],1.694,1.18,2.258,1.927,2.569,1.975,3.52,2.957,206.0,541.0
2015-02-01,Khulna,Bangladesh,89.5403,22.8456,[89.0403 22.3456 90.0403 23.3456],1.694,1.18,2.331,1.932,2.471,1.923,3.405,2.866,226.0,513.0
2015-02-02,Khulna,Bangladesh,89.5403,22.8456,[89.0403 22.3456 90.0403 23.3456],1.659,1.18,2.418,1.973,2.475,1.94,3.452,2.897,204.0,533.0
2015-02-03,Khulna,Bangladesh,89.5403,22.8456,[89.0403 22.3456 90.0403 23.3456],1.694,1.18,2.404,1.902,2.442,1.879,3.383,2.772,184.0,514.0
2015-02-04,Khulna,Bangladesh,89.5403,22.8456,[89.0403 22.3456 90.0403 23.3456],1.694,1.193,2.591,1.986,2.477,1.892,3.37,2.776,191.0,540.0
2015-02-05,Khulna,Bangladesh,89.5403,22.8456,[89.0403 22.3456 90.0403 23.3456],1.619,1.168,2.395,1.846,2.378,1.825,3.141,2.683,180.0,523.0
2015-02-06,Khulna,Bangladesh,89.5403,22.8456,[89.0403 22.3456 90.0403 23.3456],1.694,1.193,2.594,1.974,2.355,1.799,3.069,2.599,209.0,521.0
2015-02-07,Khulna,Bangladesh,89.5403,22.8456,[89.0403 22.3456 90.0403 23.3456],1.694,1.193,2.594,1.974,2.329,1.752,3.122,2.603,209.0,535.0
2015-02-08,Khulna,Bangladesh,89.5403,22.8456,[89.0403 22.3456 90.0403 23.3456],1.707,1.223,2.591,1.96,2.316,1.748,2.986,2.509,227.0,513.0
2015-02-09,Khulna,Bangladesh,89.5403,22.8456,[89.0403 22.3456 90.0403 23.3456],1.861,1.223,2.834,2.066,2.363,1.767,3.064,2.546,197.0,527.0
2015-02-10,Khulna,Bangladesh,89.5403,22.8456,[89.0403 22.3456 90.0403 23.3456],1.731,1.084,2.591,1.934,2.321,1.711,3.039,2.484,223.0,510.0
2015-02-11,Khulna,Bangladesh,89.5403,22.8456,[89.0403 22.3456 90.0403 23.3456],1.749,1.095,2.626,1.997,2.361,1.763,3.071,2.538,200.0,485.0
2015-02-12,Khulna,Bangladesh,89.5403,22.8456,[89.0403 22.3456 90.0403 23.3456],1.746,1.002,2.505,1.883,2.37,1.718,3.107,2.53,186.0,469.0
2015-02-13,Khulna,Bangladesh,89.5403,22.8456,[89.0403 22.3456 90.0403 23.3456],1.746,1.002,2.505,1.881,2.395,1.734,3.13,2.54,217.0,479.0
2015-02-14,Khulna,Bangladesh,89.5403,22.8456,[89.0403 22.3456 90.0403 23.3456],1.717,1.002,2.395,1.818,2.358,1.714,3.083,2.489,192.0,475.0
2015-02-15,Khulna,Bangladesh,89.5403,22.8456,[89.0403 22.3456 90.0403 23.3456],1.749,1.095,2.591,1.931,2.3,1.698,3.056,2.452,217.0,466.0
2015-02-16,Khulna,Bangladesh,89.5403,22.8456,[89.0403 22.3456 90.0403 23.3456],1.748,1.084,2.568,1.926,2.378,1.736,3.086,2.479,197.0,485.0
2015-02-17,Khulna,Bangladesh,89.5403,22.8456,[89.0403 22.3456 90.0403 23.3456],1.749,1.163,2.591,1.998,2.368,1.779,3.05,2.484,217.0,457.0
2015-02-18,Khulna,Bangladesh,89.5403,22.8456,[89.0403 22.3456 90.0403 23.3456],1.748,1.121,2.568,1.983,2.471,1.852,3.143,2.558,211.0,481.0
2015-02-19,Khulna,Bangladesh,89.5403,22.8456,[89.0403 22.3456 90.0403 23.3456],1.93,1.224,2.966,2.169,2.464,1.831,3.179,2.548,206.0,464.0
2015-02-20,Khulna,Bangladesh,89.5403,22.8456,[89.0403 22.3456 90.0403 23.3456],2.039,1.368,3.046,2.232,2.514,1.898,3.261,2.613,214.0,490.0
2015-02-21,Khulna,Bangladesh,89.5403,22.8456,[89.0403 22.3456 90.0403 23.3456],1.816,1.145,2.8,2.032,2.488,1.82,3.259,2.592,203.0,472.0
2015-02-22,Khulna,Bangladesh,89.5403,22.8456,[89.0403 22.3456 90.0403 23.3456],1.816,1.145,2.8,2.054,2.52,1.85,3.292,2.632,231.0,470.0
2015-02-23,Khulna,Bangladesh,89.5403,22.8456,[89.0403 22.3456 90.0403 23.3456],1.82,1.121,2.929,2.074,2.558,1.854,3.349,2.683,213.0,485.0
2015-02-24,Khulna,Bangladesh,89.5403,22.8456,[89.0403 22.3456 90.0403 23.3456],1.893,1.145,2.929,2.123,2.521,1.848,3.311,2.65,233.0,461.0
2015-02-25,Khulna,Bangladesh,89.5403,22.8456,[89.0403 22.3456 90.0403 23.3456],2.215,1.224,3.072,2.28,2.641,1.917,3.398,2.753,207.0,474.0
2015-02-26,Khulna,Bangladesh,89.5403,22.8456,[89.0403 22.3456 90.0403 23.3456],2.164,1.339,3.046,2.27,2.573,1.876,3.381,2.699,238.0,507.0
2015-02-27,Khulna,Bangladesh,89.5403,22.8456,[89.0403 22.3456 90.0403 23.3456],2.316,1.462,3.061,2.388,2.582,1.748,3.377,2.669,220.0,534.0
2015-02-28,Khulna,Bangladesh,89.5403,22.8456,[89.0403 22.3456 90.0403 23.3456],2.266,1.467,3.061,2.392,2.591,1.708,3.442,2.679,211.0,519.0
2015-03-01,Khulna,Bangladesh,89.5403,22.8456,[89.0403 22.3456 90.0403 23.3456],2.258,1.462,3.061,2.369,2.665,1.852,3.493,2.764,245.0,531.0
2015-03-02,Khulna,Bangladesh,89.5403,22.8456,[89.0403 22.3456 90.0403 23.3456],2.193,1.428,2.984,2.308,2.778,1.916,3.603,2.844,220.0,530.0
2015-03-03,Khulna,Bangladesh,89.5403,22.8456,[89.0403 22.3456 90.0403 23.3456],2.266,1.449,3.072,2.386,2.752,1.938,3.586,2.832,247.0,520.0
2015-03-04,Khulna,Bangladesh,89.5403,22.8456,[89.0403 22.3456 90.0403 23.3456],2.316,1.449,3.061,2.365,2.88,1.935,3.709,2.904,227.0,540.0
2015-03-05,Khulna,Bangladesh,89.5403,22.8456,[89.0403 22.3456 90.0403 23.3456],2.376,1.512,3.072,2.413,2.78,1.971,3.639,2.89,246.0,511.0
2015-03-06,Khulna,Bangladesh,89.5403,22.8456,[89.0403 22.3456 90.0403 23.3456],2.124,1.368,3.051,2.283,2.811,2.013,3.74,2.937,225.0,532.0
2015-03-07,Khulna,Bangladesh,89.5403,22.8456,[89.0403 22.3456 90.0403 23.3456],2.48,1.545,3.12,2.546,2.879,2.018,3.751,2.985,220.0,515.0
2015-03-08,Khulna,Bangladesh,89.5403,22.8456,[89.0403 22.3456 90.0403 23.3456],2.606,1.828,3.281,2.696,2.955,2.098,3.864,3.055,228.0,543.0
2015-03-09,Khulna,Bangladesh,89.5403,22.8456,[89.0403 22.3456 90.0403 23.3456],2.501,1.761,3.211,2.595,2.94,2.026,3.868,3.052,218.0,527.0
2015-03-10,Khulna,Bangladesh,89.5403,22.8456,[89.0403 22.3456 90.0403 23.3456],2.542,1.778,3.33,2.692,3.049,2.094,4.03,3.138,246.0,524.0
2015-03-11,Khulna,Bangladesh,89.5403,22.8456,[89.0403 22.3456 90.0403 23.3456],2.533,1.763,3.33,2.676,3.125,2.158,4.103,3.24,241.0,538.0
2015-03-12,Khulna,Bangladesh,89.5403,22.8456,[89.0403 22.3456 90.0403 23.3456],2.501,1.778,3.229,2.645,3.112,2.181,4.078,3.206,260.0,514.0
2015-03-13,Khulna,Bangladesh,89.5403,22.8456,[89.0403 22.3456 90.0403 23.3456],2.62,1.807,3.494,2.752,3.211,2.24,4.228,3.329,229.0,528.0
2015-03-14,Khulna,Bangladesh,89.5403,22.8456,[89.0403 22.3456 90.0403 23.3456],2.346,1.611,3.229,2.539,3.225,2.387,4.163,3.344,257.0,509.0
2015-03-15,Khulna,Bangladesh,89.5403,22.8456,[89.0403 22.3456 90.0403 23.3456],2.434,1.622,3.229,2.584,3.369,2.554,4.28,3.46,235.0,484.0
2015-03-16,Khulna,Bangladesh,89.5403,22.8456,[89.0403 22.3456 90.0403 23.3456],2.435,1.673,3.286,2.613,3.352,2.536,4.303,3.435,221.0,468.0
2015-03-17,Khulna,Bangladesh,89.5403,22.8456,[89.0403 22.3456 90.0403 23.3456],2.435,1.673,3.299,2.653,3.363,2.48,4.301,3.447,252.0,479.0
2015-03-18,Khulna,Bangladesh,89.5403,22.8456,[89.0403 22.3456 90.0403 23.3456],2.435,1.673,3.286,2.674,3.441,2.552,4.335,3.516,243.0,475.0
2015-03-19,Khulna,Bangladesh,89.5403,22.8456,[89.0403 22.3456 90.0403 23.3456],2.443,1.682,3.286,2.694,3.411,2.517,4.309,3.479,270.0,463.0
2015-03-20,Khulna,Bangladesh,89.5403,22.8456,[89.0403 22.3456 90.0403 23.3456],2.426,1.673,3.299,2.672,3.404,2.515,4.325,3.469,269.0,482.0
2015-03-21,Khulna,Bangladesh,89.5403,22.8456,[89.0403 22.3456 90.0403 23.3456],2.434,1.642,3.281,2.642,3.358,2.487,4.214,3.431,282.0,454.0
2015-03-22,Khulna,Bangladesh,89.5403,22.8456,[89.0403 22.3456 90.0403 23.3456],2.185,1.508,3.193,2.456,3.279,2.423,4.261,3.367,261.0,476.0
2015-03-23,Khulna,Bangladesh,89.5403,22.8456,[89.0403 22.3456 90.0403 23.3456],2.291,1.542,3.209,2.445,3.215,2.378,4.201,3.319,246.0,459.0
2015-03-24,Khulna,Bangladesh,89.5403,22.8456,[89.0403 22.3456 90.0403 23.3456],2.34,1.611,3.217,2.524,3.165,2.335,4.174,3.286,263.0,486.0
2015-03-25,Khulna,Bangladesh,89.5403,22.8456,[89.0403 22.3456 90.0403 23.3456],2.22,1.488,3.013,2.354,3.064,2.203,4.033,3.159,253.0,473.0
2015-03-26,Khulna,Bangladesh,89.5403,22.8456,[89.0403 22.3456 90.0403 23.3456],2.211,1.491,2.959,2.342,2.884,2.072,3.852,3.039,266.0,467.0
2015-03-27,Khulna,Bangladesh,89.5403,22.8456,[89.0403 22.3456 90.0403 23.3456],2.046,1.466,3.001,2.29,2.814,2.058,3.769,3.011,274.0,480.0
2015-03-28,Khulna,Bangladesh,89.5403,22.8456,[89.0403 22.3456 90.0403 23.3456],2.094,1.486,2.945,2.287,2.776,2.016,3.676,2.915,292.0,455.0
2015-03-29,Khulna,Bangladesh,89.5403,22.8456,[89.0403 22.3456 90.0403 23.3456],2.392,1.553,3.172,2.435,2.824,1.998,3.728,2.918,264.0,470.0
2015-03-30,Khulna,Bangladesh,89.5403,22.8456,[89.0403 22.3456 90.0403 23.3456],2.22,1.504,3.079,2.346,2.657,1.846,3.505,2.767,273.0,501.0
2015-03-31,Khulna,Bangladesh,89.5403,22.8456,[89.0403 22.3456 90.0403 23.3456],2.155,1.45,2.959,2.324,2.634,1.842,3.415,2.732,257.0,528.0
2015-04-01,Khulna,Bangladesh,89.5403,22.8456,[89.0403 22.3456 90.0403 23.3456],2.077,1.435,2.816,2.221,2.539,1.79,3.355,2.644,237.0,507.0
2015-04-02,Khulna,Bangladesh,89.5403,22.8456,[89.0403 22.3456 90.0403 23.3456],1.979,1.422,2.755,2.1,2.45,1.744,3.229,2.513,245.0,520.0
2015-04-03,Khulna,Bangladesh,89.5403,22.8456,[89.0403 22.3456 90.0403 23.3456],2.052,1.425,2.772,2.099,2.403,1.653,3.129,2.429,236.0,521.0
2015-04-04,Khulna,Bangladesh,89.5403,22.8456,[89.0403 22.3456 90.0403 23.3456],2.094,1.435,2.752,2.095,2.451,1.65,3.163,2.446,245.0,510.0
2015-04-05,Khulna,Bangladesh,89.5403,22.8456,[89.0403 22.3456 90.0403 23.3456],2.077,1.435,2.744,2.091,2.418,1.671,3.15,2.425,244.0,527.0
2015-04-06,Khulna,Bangladesh,89.5403,22.8456,[89.0403 22.3456 90.0403 23.3456],2.15,1.435,2.811,2.184,2.407,1.651,3.155,2.443,254.0,499.0
2015-04-07,Khulna,Bangladesh,89.5403,22.8456,[89.0403 22.3456 90.0403 23.3456],2.019,1.435,2.772,2.159,2.387,1.706,3.163,2.451,243.0,520.0
2015-04-08,Khulna,Bangladesh,89.5403,22.8456,[89.0403 22.3456 90.0403 23.3456],2.06,1.435,2.731,2.094,2.395,1.677,3.146,2.433,220.0,502.0
2015-04-09,Khulna,Bangladesh,89.5403,22.8456,[89.0403 22.3456 90.0403 23.3456],2.077,1.504,2.769,2.115,2.388,1.69,3.11,2.427,218.0,525.0
2015-04-10,Khulna,Bangladesh,89.5403,22.8456,[89.0403 22.3456 90.0403 23.3456],2.087,1.498,2.785,2.134,2.403,1.748,3.16,2.461,198.0,516.0
2015-04-11,Khulna,Bangladesh,89.5403,22.8456,[89.0403 22.3456 90.0403 23.3456],2.134,1.504,2.794,2.186,2.369,1.715,3.092,2.429,197.0,516.0
2015-04-12,Khulna,Bangladesh,89.5403,22.8456,[89.0403 22.3456 90.0403 23.3456],2.134,1.504,2.785,2.17,2.352,1.7,3.094,2.415,207.0,529.0
2015-04-13,Khulna,Bangladesh,89.5403,22.8456,[89.0403 22.3456 90.0403 23.3456],2.135,1.538,2.804,2.206,2.313,1.641,3.062,2.392,227.0,503.0
2015-04-14,Khulna,Bangladesh,89.5403,22.8456,[89.0403 22.3456 90.0403 23.3456],2.26,1.708,2.94,2.291,2.289,1.652,3.055,2.378,218.0,519.0
2015-04-15,Khulna,Bangladesh,89.5403,22.8456,[89.0403 22.3456 90.0403 23.3456],2.264,1.772,2.894,2.298,2.31,1.648,3.048,2.371,219.0,501.0
2015-04-16,Khulna,Bangladesh,89.5403,22.8456,[89.0403 22.3456 90.0403 23.3456],2.267,1.772,2.958,2.33,2.273,1.606,2.938,2.332,208.0,481.0
2015-04-17,Khulna,Bangladesh,89.5403,22.8456,[89.0403 22.3456 90.0403 23.3456],2.225,1.609,2.821,2.211,2.243,1.57,2.959,2.3,195.0,465.0
2015-04-18,Khulna,Bangladesh,89.5403,22.8456,[89.0403 22.3456 90.0403 23.3456],2.135,1.527,2.769,2.126,2.283,1.585,2.971,2.308,177.0,473.0
2015-04-19,Khulna,Bangladesh,89.5403,22.8456,[89.0403 22.3456 90.0403 23.3456],2.134,1.527,2.785,2.104,2.181,1.56,2.785,2.209,153.0,472.0
2015-04-20,Khulna,Bangladesh,89.5403,22.8456,[89.0403 22.3456 90.0403 23.3456],2.075,1.495,2.68,2.047,2.195,1.553,2.82,2.213,167.0,464.0
2015-04-21,Khulna,Bangladesh,89.5403,22.8456,[89.0403 22.3456 90.0403 23.3456],1.993,1.264,2.55,1.898,2.179,1.487,2.837,2.189,167.0,483.0
2015-04-22,Khulna,Bangladesh,89.5403,22.8456,[89.0403 22.3456 90.0403 23.3456],1.97,1.109,2.495,1.854,2.149,1.43,2.694,2.121,187.0,455.0
2015-04-23,Khulna,Bangladesh,89.5403,22.8456,[89.0403 22.3456 90.0403 23.3456],1.96,1.204,2.467,1.894,2.099,1.433,2.673,2.097,175.0,477.0
2015-04-24,Khulna,Bangladesh,89.5403,22.8456,[89.0403 22.3456 90.0403 23.3456],1.695,1.09,2.264,1.716,2.012,1.403,2.617,2.049,178.0,462.0
2015-04-25,Khulna,Bangladesh,89.5403,22.8456,[89.0403 22.3456 90.0403 23.3456],1.608,1.072,2.233,1.642,2.002,1.386,2.618,2.031,192.0,485.0
2015-04-26,Khulna,Bangladesh,89.5403,22.8456,[89.0403 22.3456 90.0403 23.3456],1.478,0.98,2.106,1.553,1.964,1.341,2.585,1.991,186.0,470.0
2015-04-27,Khulna,Bangladesh,89.5403,22.8456,[89.0403 22.3456 90.0403 23.3456],1.435,0.954,2.075,1.503,1.95,1.367,2.562,1.982,182.0,472.0
2015-04-28,Khulna,Bangladesh,89.5403,22.8456,[89.0403 22.3456 90.0403 23.3456],1.336,0.869,1.947,1.39,1.972,1.438,2.538,1.988,192.0,490.0
2015-04-29,Khulna,Bangladesh,89.5403,22.8456,[89.0403 22.3456 90.0403 23.3456],1.39,0.934,1.975,1.448,1.951,1.457,2.572,2.01,212.0,469.0
2015-04-30,Khulna,Bangladesh,89.5403,22.8456,[89.0403 22.3456 90.0403 23.3456],1.336,0.896,1.868,1.397,1.954,1.454,2.551,2.007,207.0,483.0
2015-05-01,Khulna,Bangladesh,89.5403,22.8456,[89.0403 22.3456 90.0403 23.3456],1.368,0.934,1.82,1.385,1.95,1.459,2.563,1.996,233.0,516.0
2015-05-02,Khulna,Bangladesh,89.5403,22.8456,[89.0403 22.3456 90.0403 23.3456],1.375,0.974,1.868,1.419,1.932,1.459,2.551,1.988,220.0,543.0
2015-05-03,Khulna,Bangladesh,89.5403,22.8456,[89.0403 22.3456 90.0403 23.3456],1.346,0.95,1.86,1.373,1.875,1.441,2.502,1.947,238.0,531.0
2015-05-04,Khulna,Bangladesh,89.5403,22.8456,[89.0403 22.3456 90.0403 23.3456],1.323,0.869,1.82,1.334,1.903,1.395,2.516,1.958,268.0,542.0
2015-05-05,Khulna,Bangladesh,89.5403,22.8456,[89.0403 22.3456 90.0403 23.3456],1.32,0.896,1.782,1.323,1.877,1.381,2.445,1.918,252.0,541.0
2015-05-06,Khulna,Bangladesh,89.5403,22.8456,[89.0403 22.3456 90.0403 23.3456],1.301,0.896,1.778,1.319,1.863,1.39,2.393,1.885,267.0,528.0
2015-05-07,Khulna,Bangladesh,89.5403,22.8456,[89.0403 22.3456 90.0403 23.3456],1.293,0.851,1.717,1.306,1.879,1.392,2.413,1.908,265.0,547.0
2015-05-08,Khulna,Bangladesh,89.5403,22.8456,[89.0403 22.3456 90.0403 23.3456],1.208,0.751,1.681,1.256,1.821,1.347,2.368,1.871,285.0,521.0
2015-05-09,Khulna,Bangladesh,89.5403,22.8456,[89.0403 22.3456 90.0403 23.3456],1.246,0.682,1.756,1.265,1.849,1.349,2.414,1.892,266.0,540.0
2015-05-10,Khulna,Bangladesh,89.5403,22.8456,[89.0403 22.3456 90.0403 23.3456],1.227,0.682,1.683,1.242,1.825,1.295,2.371,1.843,259.0,530.0
2015-05-11,Khulna,Bangladesh,89.5403,22.8456,[89.0403 22.3456 90.0403 23.3456],1.214,0.661,1.708,1.259,1.828,1.296,2.38,1.851,271.0,557.0
2015-05-12,Khulna,Bangladesh,89.5403,22.8456,[89.0403 22.3456 90.0403 23.3456],1.245,0.751,1.778,1.309,1.825,1.274,2.382,1.848,265.0,540.0
2015-05-13,Khulna,Bangladesh,89.5403,22.8456,[89.0403 22.3456 90.0403 23.3456],1.248,0.751,1.811,1.351,1.838,1.3,2.404,1.866,264.0,537.0
2015-05-14,Khulna,Bangladesh,89.5403,22.8456,[89.0403 22.3456 90.0403 23.3456],1.248,0.751,1.837,1.352,1.822,1.268,2.405,1.855,273.0,547.0
2015-05-15,Khulna,Bangladesh,89.5403,22.8456,[89.0403 22.3456 90.0403 23.3456],1.271,0.783,1.835,1.359,1.814,1.289,2.352,1.832,291.0,527.0
2015-05-16,Khulna,Bangladesh,89.5403,22.8456,[89.0403 22.3456 90.0403 23.3456],1.223,0.74,1.854,1.365,1.816,1.327,2.385,1.854,265.0,542.0
2015-05-17,Khulna,Bangladesh,89.5403,22.8456,[89.0403 22.3456 90.0403 23.3456],1.183,0.743,1.713,1.311,1.773,1.265,2.316,1.807,285.0,526.0
2015-05-18,Khulna,Bangladesh,89.5403,22.8456,[89.0403 22.3456 90.0403 23.3456],1.206,0.779,1.753,1.349,1.757,1.266,2.326,1.829,267.0,499.0
2015-05-19,Khulna,Bangladesh,89.5403,22.8456,[89.0403 22.3456 90.0403 23.3456],1.245,0.836,1.87,1.427,1.736,1.27,2.302,1.819,242.0,485.0
2015-05-20,Khulna,Bangladesh,89.5403,22.8456,[89.0403 22.3456 90.0403 23.3456],1.28,0.836,1.87,1.441,1.769,1.279,2.306,1.848,264.0,495.0
2015-05-21,Khulna,Bangladesh,89.5403,22.8456,[89.0403 22.3456 90.0403 23.3456],1.322,0.846,1.931,1.468,1.793,1.297,2.339,1.87,257.0,496.0
2015-05-22,Khulna,Bangladesh,89.5403,22.8456,[89.0403 22.3456 90.0403 23.3456],1.322,0.87,1.94,1.479,1.808,1.314,2.386,1.888,265.0,486.0
2015-05-23,Khulna,Bangladesh,89.5403,22.8456,[89.0403 22.3456 90.0403 23.3456],1.467,0.974,2.008,1.569,1.895,1.369,2.454,1.946,258.0,503.0
2015-05-24,Khulna,Bangladesh,89.5403,22.8456,[89.0403 22.3456 90.0403 23.3456],1.462,0.917,1.982,1.529,1.919,1.375,2.48,1.963,278.0,474.0
2015-05-25,Khulna,Bangladesh,89.5403,22.8456,[89.0403 22.3456 90.0403 23.3456],1.56,0.974,2.108,1.62,1.978,1.442,2.55,2.042,263.0,489.0
2015-05-26,Khulna,Bangladesh,89.5403,22.8456,[89.0403 22.3456 90.0403 23.3456],1.42,0.854,1.94,1.484,1.936,1.391,2.503,2.01,251.0,474.0
2015-05-27,Khulna,Bangladesh,89.5403,22.8456,[89.0403 22.3456 90.0403 23.3456],1.373,0.784,1.854,1.401,1.949,1.405,2.531,2.024,268.0,500.0
2015-05-28,Khulna,Bangladesh,89.5403,22.8456,[89.0403 22.3456 90.0403 23.3456],1.204,0.77,1.836,1.319,1.88,1.352,2.505,1.978,257.0,484.0
2015-05-29,Khulna,Bangladesh,89.5403,22.8456,[89.0403 22.3456 90.0403 23.3456],1.161,0.743,1.713,1.257,1.854,1.33,2.455,1.94,245.0,484.0
2015-05-30,Khulna,Bangladesh,89.5403,22.8456,[89.0403 22.3456 90.0403 23.3456],1.136,0.699,1.755,1.239,1.868,1.309,2.582,1.969,236.0,494.0
2015-05-31,Khulna,Bangladesh,89.5403,22.8456,[89.0403 22.3456 90.0403 23.3456],1.28,0.743,1.839,1.283,1.878,1.264,2.584,1.938,253.0,471.0
2015-06-01,Khulna,Bangladesh,89.5403,22.8456,[89.0403 22.3456 90.0403 23.3456],1.422,0.742,1.984,1.335,1.948,1.277,2.682,1.986,233.0,483.0
2015-06-02,Khulna,Bangladesh,89.5403,22.8456,[89.0403 22.3456 90.0403 23.3456],1.519,0.863,2.219,1.514,1.951,1.288,2.72,1.986,263.0,517.0
2015-06-03,Khulna,Bangladesh,89.5403,22.8456,[89.0403 22.3456 90.0403 23.3456],1.478,0.854,2.163,1.483,1.918,1.27,2.707,1.973,255.0,540.0
2015-06-04,Khulna,Bangladesh,89.5403,22.8456,[89.0403 22.3456 90.0403 23.3456],1.467,0.804,2.163,1.463,1.855,1.196,2.653,1.916,223.0,525.0
2015-06-05,Khulna,Bangladesh,89.5403,22.8456,[89.0403 22.3456 90.0403 23.3456],1.462,0.786,2.163,1.454,1.851,1.118,2.662,1.896,212.0,534.0
2015-06-06,Khulna,Bangladesh,89.5403,22.8456,[89.0403 22.3456 90.0403 23.3456],1.461,0.77,2.179,1.435,1.756,1.067,2.567,1.812,186.0,533.0
2015-06-07,Khulna,Bangladesh,89.5403,22.8456,[89.0403 22.3456 90.0403 23.3456],1.461,0.77,2.243,1.443,1.671,1.014,2.487,1.735,179.0,522.0
2015-06-08,Khulna,Bangladesh,89.5403,22.8456,[89.0403 22.3456 90.0403 23.3456],1.461,0.854,2.367,1.484,1.643,1.0,2.438,1.713,160.0,543.0
2015-06-09,Khulna,Bangladesh,89.5403,22.8456,[89.0403 22.3456 90.0403 23.3456],1.461,0.854,2.367,1.484,1.658,0.999,2.437,1.703,160.0,514.0
2015-06-10,Khulna,Bangladesh,89.5403,22.8456,[89.0403 22.3456 90.0403 23.3456],1.739,1.084,2.538,1.708,1.747,1.078,2.435,1.763,140.0,533.0
2015-06-11,Khulna,Bangladesh,89.5403,22.8456,[89.0403 22.3456 90.0403 23.3456],1.663,0.993,2.454,1.614,1.689,1.017,2.346,1.677,115.0,515.0
2015-06-12,Khulna,Bangladesh,89.5403,22.8456,[89.0403 22.3456 90.0403 23.3456],1.663,0.993,2.482,1.633,1.705,1.064,2.334,1.691,131.0,541.0
2015-06-13,Khulna,Bangladesh,89.5403,22.8456,[89.0403 22.3456 90.0403 23.3456],1.663,1.051,2.538,1.669,1.674,1.083,2.301,1.695,114.0,525.0
2015-06-14,Khulna,Bangladesh,89.5403,22.8456,[89.0403 22.3456 90.0403 23.3456],1.663,1.051,2.538,1.657,1.516,0.954,2.149,1.569,111.0,524.0
2015-06-15,Khulna,Bangladesh,89.5403,22.8456,[89.0403 22.3456 90.0403 23.3456],1.461,0.993,2.59,1.634,1.429,0.899,2.096,1.503,94.0,535.0
2015-06-16,Khulna,Bangladesh,89.5403,22.8456,[89.0403 22.3456 90.0403 23.3456],1.461,0.993,2.59,1.634,1.39,0.889,2.05,1.454,94.0,511.0
2015-06-17,Khulna,Bangladesh,89.5403,22.8456,[89.0403 22.3456 90.0403 23.3456],0.993,0.419,1.306,1.033,1.34,0.819,1.847,1.366,64.0,525.0
2015-06-18,Khulna,Bangladesh,89.5403,22.8456,[89.0403 22.3456 90.0403 23.3456],0.993,0.419,1.306,1.033,1.317,0.792,1.808,1.339,64.0,508.0
2015-06-19,Khulna,Bangladesh,89.5403,22.8456,[89.0403 22.3456 90.0403 23.3456],0.993,0.419,1.306,1.033,1.272,0.743,1.781,1.325,64.0,483.0